SCP
0 0 0 0 0 0 0 0 0 0 0 0 0 0 0 0 0 0 0 0 0 0 0 0 0 0 0 0 0 0 0 0 0 0 0 0 0 0 0 0 0 0 0 0
0 0 0 0 0 0 0 0 0 0 0 0 0 0 0 0 0 0 0 0 0 0 0 0 0 0 0 0 0 0 0 0 0 0 0 0 0 0 0 0 0 0 0 0
0 0 0 0 0 0 0 0 0 0 0 0 0 0 0 0 0 0 0 0 0 0 0 0 0 0 0 0 0 0 0 0 0 0 0 0 0 0 0 0 0 0 0 0
0 0 0 0 0 0 0 0 0 0 0 0 0 -0 0 0 0 0 0 0 0 0 0 0 0 0 0 0 0 0 0 0 0 0 0 0 0 0 0 0 0 0 0 0
0 0 0 0 0 0 0 0 0 0 0 0 0 0 0 0 0 0 0 0 0 0 0 0 0 0 0 0 0 0 0 0 0 0 0 0 0 0 0 0 0 0 0 0
0 0 0 0 0 0 0 0 0 0 0 0 0 0 0 0 0 0 0 0 0 0 0 0 0 0 0 0 0 0 0 0 0 0 0 0 0 0 0 0 0 0 0 0
0 0 0 0 0 0 0 0 0 0 0 0 0 0 0 0 0 0 0 0 0 0 0 0 0 0 0 0 0 0 0 0 0 0 0 0 0 0 0 0 0 0 0 0
0 0 0 0 0 0 0 0 0 0 0 0 0 0 0 0 0 0 0 0 0 0 0 0 0 0 0 0 0 0 0 0 0 0 0 0 0 0 0 0 0 0 0 0
0 0 0 0 0 0 0 0 0 0 0 0 0 0 0 0 0 0 0 0 0 0 0 0 0 0 0 0 0 0 0 0 0 0 0 0 0 0 0 0 0 0 0 0
0 0 0 0 0 0 0 0 0 0 0 0 0 0 0 0 0 0 0 0 0 0 0 0 0 0 0 0 0 0 0 0 0 0 0 0 0 0 0 0 0 0 0 0
0 0 0 0 0 0 0 0 0 0 0 0 0 0 0 0 0 0 0 0 0 0 0 0 0 0 0 0 0 0 0 0 0 0 0 0 0 0 0 0 0 0 0 0
0 0 0 0 0 0 0 0 0 0 0 0 0 0 0 0 0 0 0 0 0 0 0 0 0 0 0 0 0 0 0 0 0 0 0 0 0 0 0 0 0 0 0 0
0 0 0 0 0 0 0 0 0 0 0 0 0 0 0 0 0 0 0 0 0 0 0 0 0 0 0 0 0 0 0 0 0 0 0 0 0 0 0 0 0 0 0 0
0 0 0 0 0 0 0 0 0 0 0 0 0 0 0 0 0 0 0 0 0 0 0 0 0 0 0 0 0 0 0 0 0 0 0 0 0 0 0 0 0 0 0 0
0 0 0 0 0 0 0 0 0 0 0 0 0 0 0 0 0 0 0 0 0 0 0 0 0 0 0 0 0 0 0 0 0 0 0 0 0 0 0 0 0 0 0 0
0 0 0 0 0 0 0 0 0 0 0 0 0 0 0 0 0 0 0 0 0 0 0 0 0 0 0 0 0 0 0 0 0 0 0 0 0 0 0 0 0 0 0 0
0 0 0 0 0 0 0 0 0 0 0 0 0 0 0 0 0 0 0 0 0 0 0 0 0 0 0 0 0 0 0 0 0 0 0 0 0 0 0 0 0 0 0 0
0 0 0 0 0 0 0 0 0 0 0 0 0 0 0 0 0 0 0 0 0 0 0 0 0 0 0 0 0 0 0 0 0 0 0 0 0 0 0 0 0 0 0 0
0 0 0 0 0 0 0 0 0 0 0 0 0 0 0 0 0 0 0 0 0 0 0 0 0 0 0 0 0 0 0 0 0 0 0 0 0 0 0 0 0 0 0 0
0 0 0 0 0 0 0 0 0 0 0 0 0 0 0 0 0 0 0 0 0 0 0 0 0 0 0 0 0 0 0 0 0 0 0 0 0 0 0 0 0 0 0 0
0 0 0 0 0 0 0 0 0 0 0 0 0 0 0 0 0 0 0 0 0 0 0 0 0 0 0 0 0 0 0 0 0 0 0 0 0 0 0 0 0 0 0 0
0 0 0 0 0 0 0 0 0 0 0 0 0 0 0 0 0 0 0 0 0 0 0 0 0 0 0 0 0 0 0 0 0 0 0 0 0 0 0 0 0 0 0 0
0 0 0 0 0 0 0 0 0 0 0 0 0 0 0 0 0 0 0 0 0 0 0 0 0 0 0 0 0 0 0 0 0 0 0 0 0 0 0 0 0 0 0 0
-0 -0 -0 -0 -0 0 0 -0 -0 -0 -0 -0 -0 -0 -0 0 0 0 -0 0 0 0 0 0 0 0 0 0 0 0 0 0 0 0 0 0 0 0 0 0 0 0 0 0
0 -0 -0 -0 -0 -0 -0 -0 -0 -0 -0 -0 -0 -0 -0 -0 -0 -0 -0 -0 -0 -0 -0 -0 0 0 0 0 0 0 0 0 0 0 0 0 0 0 0 0 0 0 0 0
0 0 -0 -0 -0 -0 -0 -0 -0 -0 -0 -0 -0 -0 -0 -0 -0 -0 0 0 -0 -0 -0 0 0 0 0 0 0 0 0 0 0 0 0 0 0 0 0 0 0 0 0 0
Wind_Speed_500mb
23 10 23 30 32 30 26 31 34 43 18 20 31 37 30 40 50 43 60 70 69 72 71 68 73 69 68 74 78 76 74 72 69 72 70 68 63 58 55 52 50 46 42 32
7 26 37 18 23 17 19 26 43 39 21 16 19 27 22 18 40 64 59 70 77 50 44 55 67 67 71 79 80 77 76 70 73 75 72 68 62 60 56 55 55 51 44 38
37 17 30 12 16 20 25 22 31 33 23 11 8 14 23 18 55 60 70 80 70 54 49 57 64 66 72 83 85 81 78 72 74 75 72 70 66 65 65 64 61 56 49 44
32 40 40 36 38 24 45 21 25 26 12 13 9 26 17 12 20 21 53 79 58 46 42 57 65 67 75 79 79 78 76 73 74 76 80 83 81 78 72 64 59 59 54 50
16 10 12 20 29 18 15 4 5 7 11 12 9 17 13 19 19 22 24 67 65 40 50 61 66 65 67 72 76 75 75 74 75 79 82 81 79 75 67 65 65 62 58 54
31 8 6 7 7 4 8 2 6 4 4 20 23 23 6 15 17 12 18 57 55 34 35 44 55 57 65 68 72 75 76 76 78 81 82 79 80 78 76 75 69 64 62 58
12 36 5 9 8 3 7 6 7 7 2 28 21 21 35 11 16 21 24 52 37 41 36 38 54 65 69 72 76 78 77 79 80 83 80 79 79 82 84 81 74 70 67 62
7 19 31 17 26 16 18 18 11 15 16 40 10 19 12 22 25 46 62 64 31 40 38 40 52 63 69 72 76 79 79 81 82 82 75 76 80 84 87 85 79 75 70 64
14 22 7 12 6 18 11 13 8 4 5 7 26 26 17 16 24 22 23 27 29 34 36 45 51 59 68 72 75 78 78 81 82 79 73 75 80 87 90 88 82 77 72 67
11 21 17 8 6 4 7 0 5 3 5 15 38 31 31 13 25 19 12 18 29 30 36 40 50 62 71 71 72 75 81 85 82 80 79 77 79 85 90 89 86 80 74 67
16 12 27 14 17 19 3 8 10 3 11 19 27 24 6 9 7 15 15 14 16 23 34 41 49 61 73 71 73 80 84 86 88 89 85 85 82 84 91 92 87 80 73 68
12 6 16 29 13 5 10 24 28 23 36 10 24 50 16 5 15 22 18 21 30 45 45 49 49 57 69 75 77 81 84 91 91 93 90 88 87 86 90 91 87 78 72 65
16 7 12 21 30 6 10 12 19 25 21 37 31 44 11 42 27 20 18 40 53 58 53 48 55 65 67 70 75 84 89 89 94 96 94 94 93 91 92 90 85 78 70 63
10 13 22 29 35 31 23 29 18 24 21 40 44 56 66 57 46 48 62 75 60 68 62 72 78 76 75 79 80 87 90 90 92 95 96 97 98 94 89 84 81 75 69 64
21 22 35 51 54 57 57 45 53 54 46 40 54 53 54 61 39 55 72 68 70 65 57 59 66 69 81 82 85 87 88 91 91 93 96 98 96 91 82 80 81 76 69 64
23 19 29 44 54 56 60 59 60 65 65 65 65 64 68 62 86 75 82 88 68 65 76 81 78 78 83 84 88 92 93 92 91 92 96 96 94 90 81 81 83 78 72 65
18 18 19 45 47 52 43 67 69 68 66 69 57 78 86 66 66 66 95 80 79 66 77 73 70 71 64 70 84 89 90 92 91 89 92 95 95 89 81 82 84 79 71 64
37 39 29 36 31 47 43 46 62 67 65 66 68 70 68 68 91 87 67 71 80 78 90 94 89 86 74 61 60 65 79 87 88 90 93 93 93 86 82 85 86 80 70 59
49 47 27 25 37 47 13 42 51 42 67 63 59 62 65 74 78 70 96 86 77 79 90 90 88 84 70 55 53 55 67 77 82 88 90 91 90 84 83 90 86 75 66 56
55 55 41 36 35 36 21 44 51 56 40 28 47 49 52 44 28 37 78 81 76 59 69 61 59 56 52 49 53 56 63 73 79 85 90 90 89 85 87 89 82 74 65 55
18 35 48 38 33 18 11 38 33 29 27 25 34 43 44 16 25 57 49 54 56 59 55 48 60 61 57 49 47 55 62 71 72 79 83 87 86 84 84 87 82 71 63 57
28 31 40 46 54 50 33 19 17 25 30 48 58 59 61 67 68 59 68 74 66 57 54 51 55 60 63 57 54 56 65 66 70 76 81 83 85 87 91 90 78 70 59 49
10 6 7 7 14 13 13 18 49 42 51 63 57 59 52 55 70 78 79 83 87 85 78 70 62 64 64 60 60 66 70 70 71 77 82 83 83 92 93 86 79 68 55 55
19 23 13 28 8 49 83 78 43 28 35 54 63 65 66 65 73 81 82 82 80 75 77 80 77 82 72 69 71 73 75 75 75 85 83 83 89 100 97 86 75 63 62 56
21 32 22 41 39 54 58 57 74 82 87 85 81 72 71 63 77 79 93 95 79 79 77 65 73 77 77 75 74 80 83 82 83 86 84 86 99 103 95 81 70 70 61 53
21 27 28 35 46 49 63 86 75 69 70 71 73 79 74 67 73 76 83 85 84 87 97 94 89 93 90 86 83 84 89 92 92 93 95 102 113 111 96 83 75 63 54 49
Wind_Direction_500mb
188 182 217 216 216 235 258 265 263 270 267 184 229 245 248 252 271 261 262 265 262 262 263 255 236 222 225 223 223 227 227 224 219 219 221 225 230 232 235 237 238 240 244 250
208 220 234 260 263 270 270 278 272 277 300 178 256 258 259 254 260 261 263 268 269 261 251 242 221 215 220 219 220 225 228 225 223 225 226 229 232 233 237 236 238 240 242 246
230 207 217 220 243 263 241 241 260 267 280 226 284 263 249 239 250 260 263 264 263 256 244 219 209 218 219 217 220 224 228 226 225 226 226 226 227 231 232 236 238 237 238 244
253 239 242 251 252 234 269 245 259 270 272 245 124 287 220 227 258 230 251 269 266 260 232 225 216 219 220 221 222 224 226 228 227 226 227 230 234 235 239 241 239 235 238 242
221 179 195 233 240 207 264 117 281 291 268 312 225 275 237 189 239 235 242 258 270 269 244 216 220 226 225 220 220 220 223 226 228 227 231 234 234 236 238 237 235 237 238 240
257 136 201 225 70 103 131 290 239 241 223 256 209 216 203 193 212 227 229 252 260 255 217 215 222 221 217 216 216 219 220 223 226 229 232 235 236 234 231 233 234 235 237 241
228 239 145 143 158 175 192 144 292 298 220 261 180 231 246 194 183 192 215 238 242 221 224 212 211 211 212 216 215 217 219 223 225 229 233 236 237 234 234 237 237 236 237 241
254 271 174 181 212 172 181 178 175 231 253 278 152 252 243 214 228 226 230 245 208 206 221 227 223 218 214 218 217 219 221 223 225 229 233 239 238 237 236 237 237 238 240 242
205 251 36 153 178 163 180 199 200 257 74 314 268 280 293 247 228 220 202 178 193 206 224 224 224 223 222 223 224 224 224 225 226 228 232 238 238 239 237 235 235 237 238 240
248 259 191 151 53 262 191 249 108 227 252 244 277 280 271 235 224 217 182 209 223 238 235 235 231 234 232 232 232 229 227 228 228 229 233 238 240 240 238 236 234 235 236 238
232 223 260 125 193 185 160 241 226 248 186 240 266 275 200 88 47 164 214 229 234 224 241 247 242 238 240 240 238 233 230 230 229 232 235 237 241 240 238 236 234 233 233 235
213 208 243 230 231 188 240 220 206 225 238 241 237 258 260 109 168 152 170 194 274 273 256 253 247 246 243 241 240 238 235 234 235 235 235 236 240 241 237 234 232 231 231 234
348 315 287 285 278 233 221 235 250 257 264 254 249 258 222 256 250 224 262 279 269 262 247 240 250 246 244 246 245 242 240 241 239 236 235 236 237 240 238 233 229 228 228 232
169 231 247 241 247 293 279 281 269 252 252 259 255 267 278 271 279 286 284 279 275 271 260 262 257 246 247 252 251 245 244 244 241 236 236 236 237 239 237 233 227 226 227 232
165 224 224 238 247 257 258 262 265 274 270 267 274 268 270 276 274 269 271 276 277 284 276 263 258 259 258 252 250 248 247 245 240 237 237 237 236 238 235 230 224 223 226 232
178 223 217 228 235 245 252 257 251 247 250 250 253 265 258 257 265 270 275 271 280 273 278 275 270 265 262 261 254 251 246 246 241 239 237 234 234 235 232 226 221 221 224 230
189 199 221 248 231 238 240 235 245 249 243 241 247 243 253 254 252 259 267 280 277 278 277 278 273 270 269 263 264 256 252 245 239 236 234 234 233 233 230 224 218 220 224 230
232 235 232 248 232 226 222 231 232 244 242 242 244 249 254 253 257 262 266 271 277 285 289 284 280 282 281 277 260 256 250 244 239 234 233 231 232 229 226 218 215 217 222 229
228 235 242 239 236 251 201 217 223 230 242 243 255 256 253 260 257 268 268 266 270 277 283 286 288 286 282 275 261 248 241 238 236 234 232 231 229 225 221 214 212 215 221 228
233 228 233 239 247 250 232 237 246 260 258 245 246 255 256 256 257 256 262 269 276 278 284 292 290 287 278 270 261 244 238 234 233 235 232 228 224 221 217 211 211 214 218 223
216 230 239 242 254 267 277 278 280 241 291 356 15 26 22 13 342 346 348 351 338 310 294 289 297 291 284 274 262 249 243 242 236 231 229 226 222 217 210 208 209 213 217 222
267 263 265 268 258 261 19 14 325 326 24 5 348 337 328 325 325 336 333 330 332 334 336 328 315 305 290 274 260 257 252 245 236 231 228 224 219 212 203 204 208 210 213 221
275 1 275 268 327 331 64 328 312 297 331 326 328 327 324 310 311 308 303 303 308 306 306 310 311 303 295 281 269 264 258 246 238 231 227 221 214 205 201 203 206 206 213 222
305 321 323 324 1 314 311 313 341 333 343 331 323 313 314 304 301 298 302 301 298 294 292 293 288 287 288 282 278 266 256 249 241 234 224 216 208 201 198 198 204 208 213 217
290 311 298 287 287 300 300 306 314 318 316 312 309 309 305 304 298 295 298 295 297 301 298 291 284 280 280 281 280 264 253 248 243 233 225 212 203 200 195 197 201 211 214 213
265 273 283 284 300 297 302 314 322 319 319 316 314 312 311 304 297 295 286 288 295 297 293 287 284 280 278 274 269 263 255 247 240 230 220 210 199 196 193 194 195 204 206 205
Wind_Speed_850mb
23 10 23 30 32 30 26 31 34 43 18 20 31 37 30 40 50 43 60 70 69 72 71 68 73 69 68 74 78 76 74 72 69 72 70 68 63 58 55 52 50 46 42 32
7 26 37 18 23 17 19 26 43 39 21 16 19 27 22 18 40 64 59 70 77 50 44 55 67 67 71 79 80 77 76 70 73 75 72 68 62 60 56 55 55 51 44 38
37 17 30 12 16 20 25 22 31 33 23 11 8 14 23 18 55 60 70 80 70 54 49 57 64 66 72 83 85 81 78 72 74 75 72 70 66 65 65 64 61 56 49 44
32 40 40 36 38 24 45 21 25 26 12 13 9 26 17 12 20 21 53 79 58 46 42 57 65 67 75 79 79 78 76 73 74 76 80 83 81 78 72 64 59 59 54 50
16 10 12 20 29 18 15 4 5 7 11 12 9 17 13 19 19 22 24 67 65 40 50 61 66 65 67 72 76 75 75 74 75 79 82 81 79 75 67 65 65 62 58 54
31 8 6 7 7 4 8 2 6 4 4 20 23 23 6 15 17 12 18 57 55 34 35 44 55 57 65 68 72 75 76 76 78 81 82 79 80 78 76 75 69 64 62 58
12 36 5 9 8 3 7 6 7 7 2 28 21 21 35 11 16 21 24 52 37 41 36 38 54 65 69 72 76 78 77 79 80 83 80 79 79 82 84 81 74 70 67 62
7 19 31 17 26 16 18 18 11 15 16 40 10 19 12 22 25 46 62 64 31 40 38 40 52 63 69 72 76 79 79 81 82 82 75 76 80 84 87 85 79 75 70 64
14 22 7 12 6 18 11 13 8 4 5 7 26 26 17 16 24 22 23 27 29 34 36 45 51 59 68 72 75 78 78 81 82 79 73 75 80 87 90 88 82 77 72 67
11 21 17 8 6 4 7 0 5 3 5 15 38 31 31 13 25 19 12 18 29 30 36 40 50 62 71 71 72 75 81 85 82 80 79 77 79 85 90 89 86 80 74 67
16 12 27 14 17 19 3 8 10 3 11 19 27 24 6 9 7 15 15 14 16 23 34 41 49 61 73 71 73 80 84 86 88 89 85 85 82 84 91 92 87 80 73 68
12 6 16 29 13 5 10 24 28 23 36 10 24 50 16 5 15 22 18 21 30 45 45 49 49 57 69 75 77 81 84 91 91 93 90 88 87 86 90 91 87 78 72 65
16 7 12 21 30 6 10 12 19 25 21 37 31 44 11 42 27 20 18 40 53 58 53 48 55 65 67 70 75 84 89 89 94 96 94 94 93 91 92 90 85 78 70 63
10 13 22 29 35 31 23 29 18 24 21 40 44 56 66 57 46 48 62 75 60 68 62 72 78 76 75 79 80 87 90 90 92 95 96 97 98 94 89 84 81 75 69 64
21 22 35 51 54 57 57 45 53 54 46 40 54 53 54 61 39 55 72 68 70 65 57 59 66 69 81 82 85 87 88 91 91 93 96 98 96 91 82 80 81 76 69 64
23 19 29 44 54 56 60 59 60 65 65 65 65 64 68 62 86 75 82 88 68 65 76 81 78 78 83 84 88 92 93 92 91 92 96 96 94 90 81 81 83 78 72 65
18 18 19 45 47 52 43 67 69 68 66 69 57 78 86 66 66 66 95 80 79 66 77 73 70 71 64 70 84 89 90 92 91 89 92 95 95 89 81 82 84 79 71 64
37 39 29 36 31 47 43 46 62 67 65 66 68 70 68 68 91 87 67 71 80 78 90 94 89 86 74 61 60 65 79 87 88 90 93 93 93 86 82 85 86 80 70 59
49 47 27 25 37 47 13 42 51 42 67 63 59 62 65 74 78 70 96 86 77 79 90 90 88 84 70 55 53 55 67 77 82 88 90 91 90 84 83 90 86 75 66 56
55 55 41 36 35 36 21 44 51 56 40 28 47 49 52 44 28 37 78 81 76 59 69 61 59 56 52 49 53 56 63 73 79 85 90 90 89 85 87 89 82 74 65 55
18 35 48 38 33 18 11 38 33 29 27 25 34 43 44 16 25 57 49 54 56 59 55 48 60 61 57 49 47 55 62 71 72 79 83 87 86 84 84 87 82 71 63 57
28 31 40 46 54 50 33 19 17 25 30 48 58 59 61 67 68 59 68 74 66 57 54 51 55 60 63 57 54 56 65 66 70 76 81 83 85 87 91 90 78 70 59 49
10 6 7 7 14 13 13 18 49 42 51 63 57 59 52 55 70 78 79 83 87 85 78 70 62 64 64 60 60 66 70 70 71 77 82 83 83 92 93 86 79 68 55 55
19 23 13 28 8 49 83 78 43 28 35 54 63 65 66 65 73 81 82 82 80 75 77 80 77 82 72 69 71 73 75 75 75 85 83 83 89 100 97 86 75 63 62 56
21 32 22 41 39 54 58 57 74 82 87 85 81 72 71 63 77 79 93 95 79 79 77 65 73 77 77 75 74 80 83 82 83 86 84 86 99 103 95 81 70 70 61 53
21 27 28 35 46 49 63 86 75 69 70 71 73 79 74 67 73 76 83 85 84 87 97 94 89 93 90 86 83 84 89 92 92 93 95 102 113 111 96 83 75 63 54 49
Wind_Direction_850mb
188 182 217 216 216 235 258 265 263 270 267 184 229 245 248 252 271 261 262 265 262 262 263 255 236 222 225 223 223 227 227 224 219 219 221 225 230 232 235 237 238 240 244 250
208 220 234 260 263 270 270 278 272 277 300 178 256 258 259 254 260 261 263 268 269 261 251 242 221 215 220 219 220 225 228 225 223 225 226 229 232 233 237 236 238 240 242 246
230 207 217 220 243 263 241 241 260 267 280 226 284 263 249 239 250 260 263 264 263 256 244 219 209 218 219 217 220 224 228 226 225 226 226 226 227 231 232 236 238 237 238 244
253 239 242 251 252 234 269 245 259 270 272 245 124 287 220 227 258 230 251 269 266 260 232 225 216 219 220 221 222 224 226 228 227 226 227 230 234 235 239 241 239 235 238 242
221 179 195 233 240 207 264 117 281 291 268 312 225 275 237 189 239 235 242 258 270 269 244 216 220 226 225 220 220 220 223 226 228 227 231 234 234 236 238 237 235 237 238 240
257 136 201 225 70 103 131 290 239 241 223 256 209 216 203 193 212 227 229 252 260 255 217 215 222 221 217 216 216 219 220 223 226 229 232 235 236 234 231 233 234 235 237 241
228 239 145 143 158 175 192 144 292 298 220 261 180 231 246 194 183 192 215 238 242 221 224 212 211 211 212 216 215 217 219 223 225 229 233 236 237 234 234 237 237 236 237 241
254 271 174 181 212 172 181 178 175 231 253 278 152 252 243 214 228 226 230 245 208 206 221 227 223 218 214 218 217 219 221 223 225 229 233 239 238 237 236 237 237 238 240 242
205 251 36 153 178 163 180 199 200 257 74 314 268 280 293 247 228 220 202 178 193 206 224 224 224 223 222 223 224 224 224 225 226 228 232 238 238 239 237 235 235 237 238 240
248 259 191 151 53 262 191 249 108 227 252 244 277 280 271 235 224 217 182 209 223 238 235 235 231 234 232 232 232 229 227 228 228 229 233 238 240 240 238 236 234 235 236 238
232 223 260 125 193 185 160 241 226 248 186 240 266 275 200 88 47 164 214 229 234 224 241 247 242 238 240 240 238 233 230 230 229 232 235 237 241 240 238 236 234 233 233 235
213 208 243 230 231 188 240 220 206 225 238 241 237 258 260 109 168 152 170 194 274 273 256 253 247 246 243 241 240 238 235 234 235 235 235 236 240 241 237 234 232 231 231 234
348 315 287 285 278 233 221 235 250 257 264 254 249 258 222 256 250 224 262 279 269 262 247 240 250 246 244 246 245 242 240 241 239 236 235 236 237 240 238 233 229 228 228 232
169 231 247 241 247 293 279 281 269 252 252 259 255 267 278 271 279 286 284 279 275 271 260 262 257 246 247 252 251 245 244 244 241 236 236 236 237 239 237 233 227 226 227 232
165 224 224 238 247 257 258 262 265 274 270 267 274 268 270 276 274 269 271 276 277 284 276 263 258 259 258 252 250 248 247 245 240 237 237 237 236 238 235 230 224 223 226 232
178 223 217 228 235 245 252 257 251 247 250 250 253 265 258 257 265 270 275 271 280 273 278 275 270 265 262 261 254 251 246 246 241 239 237 234 234 235 232 226 221 221 224 230
189 199 221 248 231 238 240 235 245 249 243 241 247 243 253 254 252 259 267 280 277 278 277 278 273 270 269 263 264 256 252 245 239 236 234 234 233 233 230 224 218 220 224 230
232 235 232 248 232 226 222 231 232 244 242 242 244 249 254 253 257 262 266 271 277 285 289 284 280 282 281 277 260 256 250 244 239 234 233 231 232 229 226 218 215 217 222 229
228 235 242 239 236 251 201 217 223 230 242 243 255 256 253 260 257 268 268 266 270 277 283 286 288 286 282 275 261 248 241 238 236 234 232 231 229 225 221 214 212 215 221 228
233 228 233 239 247 250 232 237 246 260 258 245 246 255 256 256 257 256 262 269 276 278 284 292 290 287 278 270 261 244 238 234 233 235 232 228 224 221 217 211 211 214 218 223
216 230 239 242 254 267 277 278 280 241 291 356 15 26 22 13 342 346 348 351 338 310 294 289 297 291 284 274 262 249 243 242 236 231 229 226 222 217 210 208 209 213 217 222
267 263 265 268 258 261 19 14 325 326 24 5 348 337 328 325 325 336 333 330 332 334 336 328 315 305 290 274 260 257 252 245 236 231 228 224 219 212 203 204 208 210 213 221
275 1 275 268 327 331 64 328 312 297 331 326 328 327 324 310 311 308 303 303 308 306 306 310 311 303 295 281 269 264 258 246 238 231 227 221 214 205 201 203 206 206 213 222
305 321 323 324 1 314 311 313 341 333 343 331 323 313 314 304 301 298 302 301 298 294 292 293 288 287 288 282 278 266 256 249 241 234 224 216 208 201 198 198 204 208 213 217
290 311 298 287 287 300 300 306 314 318 316 312 309 309 305 304 298 295 298 295 297 301 298 291 284 280 280 281 280 264 253 248 243 233 225 212 203 200 195 197 201 211 214 213
265 273 283 284 300 297 302 314 322 319 319 316 314 312 311 304 297 295 286 288 295 297 293 287 284 280 278 274 269 263 255 247 240 230 220 210 199 196 193 194 195 204 206 205